Location: Gro� Glienicke
(52.4675°N, 13.1079°E)
Time: 18:55:03
(UTC+00:00)

Cosmos 1680 Rocket - Pass Details

Date: 06 July 2020
Orbit: 760 x 781 km, 74.1° (Epoch: 11 August)

Event Time Altitude Azimuth Distance (km) Brightness Sun altitude
Exits shadow 22:39:43 - 224° (SW) 2,621 5.9 -14.6°
Reaches altitude 10° 22:40:30 10° 227° (SW) 2,333 5.7 -14.6°
Maximum altitude 22:45:39 50° 303° (WNW) 991 4.3 -14.7°
Drops below altitude 10° 22:50:51 10° 18° (NNE) 2,348 7.1 -14.8°
Sets 22:53:19 0° 24° (NNE) 3,278 7.9 -14.9°
